TimeCDT,TemperatureF,Dew PointF,Humidity,Sea Level PressureIn,VisibilityMPH,Wind Direction,Wind SpeedMPH,Gust SpeedMPH,PrecipitationIn,Events,Conditions,WindDirDegrees,DateUTC
12:52 AM,33.1,27.0,78,30.20,10.0,Calm,Calm,-,N/A,,Clear,0,2013-03-20 05:52:00
1:52 AM,30.0,24.1,79,30.20,10.0,Calm,Calm,-,N/A,,Clear,0,2013-03-20 06:52:00
2:52 AM,28.0,24.1,85,30.19,10.0,SW,3.5,-,N/A,,Clear,230,2013-03-20 07:52:00
3:52 AM,28.9,24.1,82,30.17,10.0,WSW,5.8,-,N/A,,Clear,240,2013-03-20 08:52:00
4:52 AM,32.0,26.1,79,30.17,10.0,Calm,Calm,-,N/A,,Clear,0,2013-03-20 09:52:00
5:52 AM,34.0,28.0,79,30.18,10.0,WNW,5.8,-,N/A,,Clear,290,2013-03-20 10:52:00
6:52 AM,34.0,28.9,82,30.20,10.0,NW,9.2,-,N/A,,Clear,310,2013-03-20 11:52:00
7:52 AM,35.1,28.9,78,30.21,10.0,WNW,6.9,-,N/A,,Scattered Clouds,300,2013-03-20 12:52:00
8:52 AM,36.0,28.0,73,30.24,10.0,NW,9.2,-,N/A,,Mostly Cloudy,320,2013-03-20 13:52:00
8:59 AM,37.4,28.4,70,30.22,10.0,NNW,8.1,-,N/A,,Mostly Cloudy,330,2013-03-20 13:59:00
9:37 AM,37.4,24.8,60,30.23,10.0,NNW,15.0,-,N/A,,Scattered Clouds,330,2013-03-20 14:37:00
9:52 AM,37.9,25.0,60,30.25,10.0,NNW,15.0,-,N/A,,Partly Cloudy,340,2013-03-20 14:52:00
10:52 AM,36.0,24.1,62,30.26,7.0,NNW,16.1,-,0.00,Snow,Light Snow,340,2013-03-20 15:52:00
11:11 AM,33.8,24.8,70,30.24,4.0,NW,12.7,20.7,0.00,Snow,Light Snow,320,2013-03-20 16:11:00
11:29 AM,35.6,23.0,60,30.25,10.0,NW,10.4,17.3,0.00,,Overcast,310,2013-03-20 16:29:00
11:52 AM,36.0,21.9,57,30.25,10.0,NNW,10.4,19.6,0.00,,Mostly Cloudy,330,2013-03-20 16:52:00
12:52 PM,37.9,19.9,48,30.23,10.0,NNW,17.3,23.0,N/A,,Mostly Cloudy,340,2013-03-20 17:52:00
1:52 PM,37.0,19.0,48,30.21,10.0,NNW,16.1,27.6,N/A,,Mostly Cloudy,340,2013-03-20 18:52:00
2:52 PM,39.0,19.9,46,30.18,10.0,NNW,13.8,24.2,N/A,,Mostly Cloudy,330,2013-03-20 19:52:00
3:52 PM,39.0,19.0,45,30.16,10.0,NW,10.4,21.9,N/A,,Mostly Cloudy,320,2013-03-20 20:52:00
4:52 PM,39.0,19.0,45,30.15,10.0,NNW,15.0,20.7,N/A,,Mostly Cloudy,330,2013-03-20 21:52:00
5:52 PM,37.0,17.1,44,30.14,10.0,NNW,15.0,27.6,N/A,,Partly Cloudy,330,2013-03-20 22:52:00
6:52 PM,35.1,16.0,46,30.16,10.0,NNW,12.7,-,N/A,,Clear,340,2013-03-20 23:52:00
7:52 PM,33.1,15.1,48,30.15,10.0,NNW,10.4,-,N/A,,Clear,330,2013-03-21 00:52:00
8:52 PM,30.9,15.1,52,30.16,10.0,NNW,8.1,-,N/A,,Clear,340,2013-03-21 01:52:00
9:52 PM,28.9,14.0,54,30.15,10.0,NNW,6.9,-,N/A,,Clear,330,2013-03-21 02:52:00
10:52 PM,28.0,14.0,56,30.15,10.0,NW,3.5,-,N/A,,Clear,320,2013-03-21 03:52:00
11:52 PM,28.0,15.1,58,30.14,10.0,Calm,Calm,-,N/A,,Clear,0,2013-03-21 04:52:00